Starlink 11312

operational
NORAD ID: 61689 Int'l Des: 2024-195 Owner: SPXS Country: US Constellation: starlink
LEOCIRCULAR

关于 Starlink 11312

正在加载描述...

实时位置

正在加载3D地球...

即将过境

高度历史

Altitude vs Time

uPlot chart will show altitude changes over time

两行轨道根数

1 61689U 24195C 25349.53960841 .00000719 00000-0 10793-4 0 9991
2 61689 53.1599 81.3312 0001339 102.4759 257.6409 15.69716597 65815
Epoch: Dec 15, 2025 • Age: 31 hours

当前状态

高度 359.4 km
速度 7.70 km/s
星下点 13.73°N, 144.32°W
发射日期 Oct 30, 2024
运行时间 1.1 years
类型 internet

技术详情

分类 Payload
质量 960.00 kg
干质量 910.00 kg
总质量 960.00 kg
长度 0.30 m
直径 4.10 m
跨度 29.00 m
形状 Box + pan
制造商 SPXS
平台类型 Starlink V2MD
阶段状态 In Orbit
所有者/国家 SPXS/US

大型星座

Loading constellations...